TimeMST,TemperatureF,Dew PointF,Humidity,Sea Level PressureIn,VisibilityMPH,Wind Direction,Wind SpeedMPH,Gust SpeedMPH,PrecipitationIn,Events,Conditions,WindDirDegrees,DateUTC
12:15 AM,89.6,53.6,29,29.89,10.0,SW,6.9,-,N/A,,Clear,230,2013-08-16 07:15:00
12:35 AM,89.6,53.6,29,29.88,10.0,West,3.5,-,N/A,,Clear,270,2013-08-16 07:35:00
12:55 AM,87.8,53.6,31,29.89,10.0,Calm,Calm,-,N/A,,Clear,0,2013-08-16 07:55:00
1:15 AM,86.0,53.6,33,29.88,10.0,NNW,5.8,-,N/A,,Clear,340,2013-08-16 08:15:00
1:35 AM,87.8,55.4,33,29.87,10.0,North,6.9,-,N/A,,Clear,350,2013-08-16 08:35:00
1:55 AM,86.0,53.6,33,29.88,10.0,North,8.1,-,N/A,,Clear,10,2013-08-16 08:55:00
2:15 AM,86.0,53.6,33,29.88,10.0,North,5.8,-,N/A,,Clear,360,2013-08-16 09:15:00
2:35 AM,84.2,53.6,35,29.88,10.0,Calm,Calm,-,N/A,,Clear,0,2013-08-16 09:35:00
2:55 AM,84.2,53.6,35,29.88,10.0,North,9.2,-,N/A,,Clear,360,2013-08-16 09:55:00
3:15 AM,86.0,53.6,33,29.87,10.0,North,5.8,-,N/A,,Clear,350,2013-08-16 10:15:00
3:35 AM,84.2,53.6,35,29.88,10.0,North,4.6,-,N/A,,Clear,10,2013-08-16 10:35:00
3:55 AM,86.0,53.6,33,29.88,10.0,North,3.5,-,N/A,,Clear,360,2013-08-16 10:55:00
4:15 AM,84.2,55.4,37,29.89,10.0,South,3.5,-,N/A,,Clear,190,2013-08-16 11:15:00
4:35 AM,82.4,53.6,37,29.89,10.0,Calm,Calm,-,N/A,,Clear,0,2013-08-16 11:35:00
4:55 AM,82.4,55.4,39,29.89,10.0,South,3.5,-,N/A,,Clear,190,2013-08-16 11:55:00
5:15 AM,82.4,55.4,39,29.90,10.0,Calm,Calm,-,N/A,,Clear,0,2013-08-16 12:15:00
5:35 AM,80.6,55.4,42,29.90,10.0,ENE,6.9,-,N/A,,Clear,70,2013-08-16 12:35:00
5:55 AM,82.4,55.4,39,29.91,10.0,East,4.6,-,N/A,,Clear,100,2013-08-16 12:55:00
6:15 AM,82.4,57.2,42,29.91,10.0,SE,4.6,-,N/A,,Clear,130,2013-08-16 13:15:00
6:35 AM,82.4,57.2,42,29.92,10.0,Calm,Calm,-,N/A,,Clear,0,2013-08-16 13:35:00
6:55 AM,82.4,57.2,42,29.92,10.0,Calm,Calm,-,N/A,,Clear,0,2013-08-16 13:55:00
7:15 AM,87.8,57.2,35,29.93,10.0,East,4.6,-,N/A,,Clear,100,2013-08-16 14:15:00
7:35 AM,87.8,57.2,35,29.93,10.0,SSE,3.5,-,N/A,,Clear,150,2013-08-16 14:35:00
7:55 AM,89.6,57.2,33,29.94,10.0,SSE,4.6,-,N/A,,Clear,150,2013-08-16 14:55:00
8:15 AM,91.4,57.2,31,29.94,10.0,SSE,6.9,-,N/A,,Clear,160,2013-08-16 15:15:00
8:35 AM,93.2,57.2,30,29.94,10.0,SSE,5.8,-,N/A,,Clear,150,2013-08-16 15:35:00
8:55 AM,93.2,57.2,30,29.94,10.0,SSE,5.8,-,N/A,,Clear,160,2013-08-16 15:55:00
9:15 AM,95.0,57.2,28,29.94,10.0,SSE,4.6,-,N/A,,Clear,150,2013-08-16 16:15:00
9:35 AM,95.0,57.2,28,29.94,10.0,East,5.8,-,N/A,,Clear,90,2013-08-16 16:35:00
9:55 AM,96.8,57.2,27,29.95,10.0,SE,4.6,-,N/A,,Clear,140,2013-08-16 16:55:00
10:15 AM,98.6,57.2,25,29.94,10.0,ESE,8.1,-,N/A,,Clear,120,2013-08-16 17:15:00
10:35 AM,98.6,57.2,25,29.94,10.0,SE,5.8,-,N/A,,Clear,130,2013-08-16 17:35:00
10:55 AM,98.6,57.2,25,29.93,10.0,SSE,5.8,-,N/A,,Clear,160,2013-08-16 17:55:00
11:15 AM,100.4,57.2,24,29.93,10.0,SSE,6.9,-,N/A,,Clear,150,2013-08-16 18:15:00
11:35 AM,102.2,57.2,22,29.93,10.0,ESE,3.5,-,N/A,,Clear,110,2013-08-16 18:35:00
11:55 AM,102.2,57.2,22,29.92,10.0,SE,3.5,-,N/A,,Clear,130,2013-08-16 18:55:00
12:15 PM,104.0,57.2,21,29.91,10.0,SE,6.9,-,N/A,,Clear,130,2013-08-16 19:15:00
12:35 PM,105.8,57.2,20,29.90,10.0,SSE,6.9,-,N/A,,Clear,150,2013-08-16 19:35:00
12:55 PM,105.8,55.4,19,29.89,10.0,West,3.5,-,N/A,,Clear,260,2013-08-16 19:55:00
1:15 PM,105.8,55.4,19,29.89,10.0,Calm,Calm,-,N/A,,Clear,0,2013-08-16 20:15:00
1:35 PM,105.8,55.4,19,29.88,10.0,North,3.5,-,N/A,,Clear,360,2013-08-16 20:35:00
1:55 PM,107.6,55.4,18,29.87,10.0,East,6.9,-,N/A,,Clear,90,2013-08-16 20:55:00
2:15 PM,107.6,53.6,17,29.86,10.0,Calm,Calm,-,N/A,,Clear,0,2013-08-16 21:15:00
2:35 PM,107.6,53.6,17,29.85,10.0,SE,4.6,-,N/A,,Clear,130,2013-08-16 21:35:00
2:55 PM,107.6,53.6,17,29.84,10.0,ESE,3.5,-,N/A,,Clear,120,2013-08-16 21:55:00
3:15 PM,107.6,51.8,16,29.84,10.0,SSW,8.1,-,N/A,,Clear,210,2013-08-16 22:15:00
3:35 PM,109.4,50.0,14,29.83,10.0,West,4.6,-,N/A,,Clear,270,2013-08-16 22:35:00
3:55 PM,109.4,50.0,14,29.82,10.0,West,6.9,-,N/A,,Clear,280,2013-08-16 22:55:00
4:15 PM,107.6,50.0,15,29.81,10.0,NE,10.4,-,N/A,,Clear,40,2013-08-16 23:15:00
4:35 PM,109.4,50.0,14,29.81,10.0,WSW,9.2,-,N/A,,Clear,250,2013-08-16 23:35:00
4:55 PM,109.4,51.8,15,29.81,10.0,WNW,6.9,-,N/A,,Clear,290,2013-08-16 23:55:00
5:15 PM,107.6,50.0,15,29.81,10.0,North,5.8,-,N/A,,Clear,350,2013-08-17 00:15:00
5:35 PM,107.6,51.8,16,29.81,10.0,ESE,3.5,-,N/A,,Clear,110,2013-08-17 00:35:00
5:55 PM,107.6,51.8,16,29.81,10.0,South,5.8,-,N/A,,Clear,170,2013-08-17 00:55:00
6:15 PM,107.6,51.8,16,29.81,10.0,West,6.9,-,N/A,,Clear,270,2013-08-17 01:15:00
6:35 PM,107.6,51.8,16,29.82,10.0,WNW,4.6,-,N/A,,Clear,290,2013-08-17 01:35:00
6:55 PM,107.6,50.0,15,29.82,10.0,NW,6.9,-,N/A,,Clear,310,2013-08-17 01:55:00
7:15 PM,105.8,50.0,15,29.84,10.0,NNW,4.6,-,N/A,,Clear,330,2013-08-17 02:15:00
7:35 PM,105.8,48.2,14,29.85,10.0,Calm,Calm,-,N/A,,Clear,0,2013-08-17 02:35:00
7:55 PM,98.6,55.4,24,29.89,6.0,East,16.1,-,N/A,,Clear,80,2013-08-17 02:55:00
8:15 PM,91.4,64.4,41,29.89,10.0,South,11.5,27.6,0.01,,Scattered Clouds,180,2013-08-17 03:15:00
8:35 PM,91.4,66.2,43,29.89,10.0,South,9.2,-,0.01,,Partly Cloudy,180,2013-08-17 03:35:00
8:55 PM,91.4,66.2,43,29.91,10.0,SW,4.6,-,0.01,,Clear,230,2013-08-17 03:55:00
9:15 PM,91.4,68.0,46,29.93,10.0,SE,13.8,-,N/A,,Clear,140,2013-08-17 04:15:00
9:35 PM,91.4,60.8,36,29.94,10.0,SE,13.8,-,N/A,,Clear,140,2013-08-17 04:35:00
9:55 PM,89.6,60.8,38,29.93,7.0,South,15.0,-,N/A,,Clear,170,2013-08-17 04:55:00
10:15 PM,89.6,60.8,38,29.93,6.0,SSE,13.8,-,N/A,,Clear,160,2013-08-17 05:15:00
10:35 PM,89.6,60.8,38,29.93,10.0,South,6.9,-,N/A,,Clear,190,2013-08-17 05:35:00
10:55 PM,91.4,57.2,31,29.92,10.0,SSW,6.9,-,N/A,,Clear,200,2013-08-17 05:55:00
11:15 PM,89.6,57.2,33,29.91,10.0,WSW,4.6,-,N/A,,Clear,240,2013-08-17 06:15:00
11:35 PM,89.6,59.0,36,29.92,10.0,West,4.6,-,N/A,,Clear,280,2013-08-17 06:35:00
11:55 PM,91.4,57.2,31,29.90,10.0,West,5.8,-,N/A,,Clear,280,2013-08-17 06:55:00